When you browse on this site, cookies collect data to enhance your experience and personalize the content and advertising you see.
Visit our Privacy Policy to learn more. By continuing to use the site, you agree to this use of cookies and data.
  • In Czech Republic
  • List of Countries
  • For 7 days
  • Water Temperature
  • Satellite Maps
  • Weather Map
  • Weather Widgets
  • user-avatar
    Login

    Hourly Weather Alcantarilla

    Today, 20 January, Sunday

    Time Temperature Precipitation Wind Pressure Humidity
    00:00 +11°C° 0 mm 1 mps 752 mmHg 81%
    01:00 +11°C° 0.5 mm 1 mps 751 mmHg 82%
    02:00 +10°C° 0.5 mm 1 mps 751 mmHg 84%
    03:00 +9°C° 0.5 mm 0 mps 750 mmHg 85%
    04:00 +10°C° 0.1 mm 1 mps 750 mmHg 85%
    05:00 +9°C° 0.1 mm 1 mps 750 mmHg 85%
    06:00 +8°C° 0 mm 0 mps 749 mmHg 87%
    07:00 +9°C° 0 mm 0 mps 749 mmHg 80%
    08:00 +12°C° 0 mm 1 mps 749 mmHg 74%
    09:00 +13°C° 0 mm 1 mps 749 mmHg 68%
    10:00 +14°C° 0 mm 2 mps 749 mmHg 63%
    11:00 +14°C° 0 mm 4 mps 750 mmHg 59%
    12:00 +16°C° 0 mm 5 mps 750 mmHg 54%
    13:00 +16°C° 0 mm 7 mps 750 mmHg 50%
    14:00 +16°C° 0 mm 8 mps 750 mmHg 47%
    15:00 +16°C° 0 mm 9 mps 751 mmHg 43%
    16:00 +15°C° 0 mm 8 mps 751 mmHg 45%
    17:00 +12°C° 0 mm 7 mps 752 mmHg 47%
    18:00 +11°C° 0 mm 6 mps 753 mmHg 49%
    19:00 +10°C° 0 mm 6 mps 753 mmHg 50%
    20:00 +10°C° 0 mm 6 mps 754 mmHg 51%
    21:00 +9°C° 0 mm 6 mps 755 mmHg 51%
    22:00 +9°C° 0 mm 6 mps 755 mmHg 53%
    23:00 +8°C° 0 mm 6 mps 755 mmHg 55%

    Tomorrow, 21 January, Monday

    Time Temperature Precipitation Wind Pressure Humidity
    00:00 +8°C° 0 mm 6 mps 756 mmHg 57%
    01:00 +7°C° 0 mm 5 mps 756 mmHg 59%
    02:00 +7°C° 0 mm 5 mps 756 mmHg 60%
    03:00 +6°C° 0 mm 5 mps 756 mmHg 62%
    04:00 +6°C° 0 mm 5 mps 756 mmHg 63%
    05:00 +5°C° 0 mm 4 mps 756 mmHg 64%
    06:00 +5°C° 0 mm 4 mps 757 mmHg 65%
    07:00 +6°C° 0 mm 5 mps 757 mmHg 62%
    08:00 +7°C° 0 mm 6 mps 757 mmHg 59%
    09:00 +7°C° 0 mm 6 mps 758 mmHg 56%
    10:00 +9°C° 0 mm 7 mps 758 mmHg 51%
    11:00 +10°C° 0 mm 7 mps 758 mmHg 45%
    12:00 +12°C° 0 mm 8 mps 758 mmHg 40%
    13:00 +12°C° 0 mm 7 mps 757 mmHg 38%
    14:00 +14°C° 0 mm 7 mps 757 mmHg 36%
    15:00 +14°C° 0 mm 6 mps 757 mmHg 34%
    16:00 +13°C° 0 mm 5 mps 757 mmHg 36%
    17:00 +11°C° 0 mm 4 mps 758 mmHg 39%
    18:00 +10°C° 0 mm 4 mps 758 mmHg 42%
    19:00 +9°C° 0 mm 3 mps 758 mmHg 44%
    20:00 +8°C° 0 mm 3 mps 759 mmHg 45%
    21:00 +8°C° 0 mm 3 mps 759 mmHg 47%
    22:00 +7°C° 0 mm 3 mps 759 mmHg 48%
    23:00 +7°C° 0 mm 3 mps 759 mmHg 50%

    Day after tomorrow, 22 January, Tuesday

    Time Temperature Precipitation Wind Pressure Humidity
    00:00 +5°C° 0 mm 3 mps 759 mmHg 51%
    01:00 +5°C° 0 mm 3 mps 759 mmHg 54%
    02:00 +5°C° 0 mm 3 mps 759 mmHg 57%
    03:00 +4°C° 0 mm 4 mps 759 mmHg 59%
    04:00 +4°C° 0 mm 3 mps 758 mmHg 61%
    05:00 +3°C° 0 mm 3 mps 758 mmHg 63%
    06:00 +3°C° 0 mm 3 mps 758 mmHg 64%
    07:00 +5°C° 0 mm 2 mps 758 mmHg 60%
    08:00 +6°C° 0 mm 2 mps 758 mmHg 57%
    09:00 +7°C° 0 mm 2 mps 757 mmHg 53%
    10:00 +9°C° 0 mm 2 mps 757 mmHg 46%
    11:00 +11°C° 0 mm 3 mps 756 mmHg 40%
    12:00 +12°C° 0 mm 3 mps 756 mmHg 33%
    13:00 +13°C° 0 mm 3 mps 755 mmHg 33%
    14:00 +14°C° 0 mm 4 mps 754 mmHg 32%
    15:00 +14°C° 0 mm 4 mps 753 mmHg 32%
    16:00 +13°C° 0 mm 5 mps 753 mmHg 37%
    17:00 +12°C° 0 mm 5 mps 753 mmHg 43%
    18:00 +10°C° 0 mm 5 mps 753 mmHg 48%
    19:00 +10°C° 0 mm 5 mps 753 mmHg 52%
    20:00 +10°C° 0 mm 5 mps 753 mmHg 56%
    21:00 +9°C° 0 mm 5 mps 753 mmHg 60%
    22:00 +9°C° 0 mm 6 mps 753 mmHg 59%
    23:00 +9°C° 0 mm 7 mps 753 mmHg 59%

    23 January, Wednesday

    Time Temperature Precipitation Wind Pressure Humidity
    00:00 +9°C° 0 mm 8 mps 753 mmHg 58%
    01:00 +8°C° 0 mm 7 mps 753 mmHg 58%
    02:00 +8°C° 0 mm 7 mps 753 mmHg 58%
    03:00 +8°C° 0 mm 7 mps 753 mmHg 57%
    04:00 +8°C° 0 mm 7 mps 753 mmHg 56%
    05:00 +8°C° 0 mm 7 mps 753 mmHg 55%
    06:00 +8°C° 0 mm 7 mps 753 mmHg 54%
    07:00 +8°C° 0 mm 7 mps 753 mmHg 51%
    08:00 +9°C° 0 mm 7 mps 752 mmHg 49%
    09:00 +9°C° 0 mm 8 mps 752 mmHg 47%
    10:00 +12°C° 0 mm 10 mps 751 mmHg 42%
    11:00 +14°C° 0 mm 12 mps 751 mmHg 37%
    12:00 +17°C° 0 mm 13 mps 750 mmHg 31%
    13:00 +17°C° 0 mm 14 mps 750 mmHg 34%
    14:00 +15°C° 0 mm 14 mps 749 mmHg 36%
    15:00 +15°C° 0 mm 14 mps 749 mmHg 38%
    16:00 +14°C° 0 mm 12 mps 749 mmHg 42%
    17:00 +13°C° 0 mm 10 mps 749 mmHg 45%
    18:00 +12°C° 0 mm 7 mps 749 mmHg 48%
    19:00 +12°C° 0 mm 7 mps 749 mmHg 50%
    20:00 +12°C° 0 mm 8 mps 749 mmHg 51%
    21:00 +12°C° 0 mm 8 mps 749 mmHg 53%
    22:00 +12°C° 0 mm 7 mps 750 mmHg 55%
    23:00 +11°C° 0 mm 6 mps 750 mmHg 58%

    24 January, Thursday

    Time Temperature Precipitation Wind Pressure Humidity
    00:00 +12°C° 0 mm 5 mps 750 mmHg 60%
    01:00 +12°C° 0 mm 5 mps 750 mmHg 61%
    02:00 +10°C° 0 mm 5 mps 750 mmHg 62%
    03:00 +10°C° 0 mm 5 mps 750 mmHg 63%
    04:00 +10°C° 0 mm 5 mps 751 mmHg 63%
    05:00 +10°C° 0 mm 6 mps 751 mmHg 63%
    06:00 +10°C° 0 mm 7 mps 751 mmHg 64%
    07:00 +11°C° 0 mm 8 mps 752 mmHg 60%
    08:00 +12°C° 0 mm 9 mps 752 mmHg 57%
    09:00 +12°C° 0 mm 10 mps 753 mmHg 53%
    10:00 +14°C° 0 mm 11 mps 753 mmHg 48%
    11:00 +16°C° 0 mm 11 mps 753 mmHg 43%
    12:00 +17°C° 0 mm 12 mps 753 mmHg 38%
    13:00 +18°C° 0 mm 11 mps 753 mmHg 39%
    14:00 +18°C° 0 mm 11 mps 752 mmHg 39%
    15:00 +18°C° 0 mm 10 mps 752 mmHg 40%
    16:00 +17°C° 0 mm 9 mps 752 mmHg 44%
    17:00 +16°C° 0 mm 7 mps 752 mmHg 49%
    18:00 +15°C° 0 mm 6 mps 752 mmHg 53%
    19:00 +14°C° 0 mm 6 mps 752 mmHg 55%
    20:00 +14°C° 0 mm 6 mps 752 mmHg 57%
    21:00 +14°C° 0 mm 6 mps 753 mmHg 59%
    22:00 +14°C° 0 mm 6 mps 753 mmHg 59%
    23:00 +14°C° 0 mm 7 mps 753 mmHg 58%

    25 January, Friday

    Time Temperature Precipitation Wind Pressure Humidity
    00:00 +13°C° 0 mm 8 mps 753 mmHg 58%
    01:00 +13°C° 0 mm 8 mps 753 mmHg 59%
    02:00 +12°C° 0 mm 8 mps 753 mmHg 59%
    03:00 +12°C° 0 mm 8 mps 753 mmHg 60%
    04:00 +12°C° 0 mm 7 mps 753 mmHg 61%
    05:00 +12°C° 0 mm 7 mps 753 mmHg 61%
    06:00 +11°C° 0 mm 7 mps 753 mmHg 62%
    07:00 +12°C° 0 mm 8 mps 754 mmHg 59%
    08:00 +13°C° 0 mm 9 mps 754 mmHg 56%
    09:00 +15°C° 0 mm 9 mps 755 mmHg 53%
    10:00 +16°C° 0 mm 10 mps 755 mmHg 47%
    11:00 +17°C° 0 mm 11 mps 755 mmHg 42%
    12:00 +19°C° 0 mm 12 mps 755 mmHg 37%
    13:00 +19°C° 0 mm 11 mps 754 mmHg 36%
    14:00 +19°C° 0 mm 11 mps 754 mmHg 36%
    15:00 +19°C° 0 mm 10 mps 754 mmHg 35%
    16:00 +18°C° 0 mm 9 mps 755 mmHg 38%
    17:00 +17°C° 0 mm 7 mps 755 mmHg 41%
    18:00 +15°C° 0 mm 6 mps 756 mmHg 45%
    19:00 +14°C° 0 mm 5 mps 756 mmHg 47%
    20:00 +14°C° 0 mm 5 mps 757 mmHg 50%
    21:00 +13°C° 0 mm 5 mps 757 mmHg 52%
    22:00 +12°C° 0 mm 5 mps 758 mmHg 53%
    23:00 +12°C° 0 mm 5 mps 758 mmHg 54%
    Show more